TimeCDT,TemperatureF,Dew PointF,Humidity,Sea Level PressureIn,VisibilityMPH,Wind Direction,Wind SpeedMPH,Gust SpeedMPH,PrecipitationIn,Events,Conditions,WindDirDegrees,DateUTC
12:53 AM,75.9,71.1,85,30.03,10.0,SE,5.8,-,N/A,,Clear,140,2013-07-09 05:53:00
1:53 AM,75.0,71.1,87,30.03,10.0,SE,5.8,-,N/A,,Clear,140,2013-07-09 06:53:00
2:53 AM,73.9,71.1,91,30.03,10.0,SE,4.6,-,N/A,,Clear,140,2013-07-09 07:53:00
3:53 AM,75.0,71.1,87,30.03,10.0,SSE,5.8,-,N/A,,Clear,150,2013-07-09 08:53:00
4:53 AM,73.9,71.1,91,30.04,10.0,SSE,5.8,-,N/A,,Clear,150,2013-07-09 09:53:00
5:53 AM,73.0,71.1,93,30.03,10.0,SSE,5.8,-,N/A,,Clear,150,2013-07-09 10:53:00
6:53 AM,73.9,70.0,87,30.04,10.0,SSE,5.8,-,N/A,,Clear,150,2013-07-09 11:53:00
7:53 AM,79.0,71.1,77,30.06,10.0,South,6.9,-,N/A,,Clear,180,2013-07-09 12:53:00
8:53 AM,82.9,70.0,65,30.07,10.0,South,10.4,-,N/A,,Clear,190,2013-07-09 13:53:00
9:53 AM,84.9,70.0,61,30.06,10.0,SSW,13.8,-,N/A,,Clear,200,2013-07-09 14:53:00
10:53 AM,87.1,71.1,59,30.07,10.0,SSW,11.5,-,N/A,,Unknown,200,2013-07-09 15:53:00
11:53 AM,89.1,72.0,57,30.06,10.0,South,10.4,-,N/A,,Clear,170,2013-07-09 16:53:00
12:53 PM,91.0,72.0,53,30.04,10.0,SSE,10.4,-,N/A,,Clear,160,2013-07-09 17:53:00
1:53 PM,93.0,72.0,50,30.02,10.0,South,12.7,-,N/A,,Clear,190,2013-07-09 18:53:00
2:53 PM,93.0,71.1,49,30.01,10.0,SW,16.1,21.9,N/A,,Clear,220,2013-07-09 19:53:00
3:53 PM,93.9,72.0,49,29.99,10.0,SSW,8.1,-,N/A,,Clear,200,2013-07-09 20:53:00
4:53 PM,95.0,70.0,44,29.98,10.0,South,10.4,-,N/A,,Partly Cloudy,180,2013-07-09 21:53:00
5:53 PM,93.9,69.1,44,29.96,10.0,SSW,10.4,-,N/A,,Clear,210,2013-07-09 22:53:00
6:53 PM,93.0,70.0,47,29.96,10.0,SSW,9.2,-,N/A,,Clear,200,2013-07-09 23:53:00
7:53 PM,89.1,71.1,55,29.95,10.0,South,6.9,-,N/A,,Clear,190,2013-07-10 00:53:00
8:53 PM,84.9,71.1,63,29.95,10.0,South,5.8,-,N/A,,Clear,180,2013-07-10 01:53:00
9:53 PM,82.0,71.1,69,29.96,10.0,South,4.6,-,N/A,,Clear,180,2013-07-10 02:53:00
10:53 PM,81.0,70.0,69,29.97,10.0,SSE,5.8,-,N/A,,Clear,160,2013-07-10 03:53:00
11:53 PM,79.0,70.0,74,29.98,10.0,SSE,5.8,-,N/A,,Clear,160,2013-07-10 04:53:00